Location: Hamburg
(53.5511°N, 9.9937°E)
Time: 16:14:22
(UTC+02:00)

ISS - Pass Details

Date: 18 March 2026
Orbit: 416 x 425 km, 51.6° (Epoch: 19 April)

Event Time Altitude Azimuth Distance (km) Brightness Sun altitude
Rises 20:36:02 0° 268° (W) 2,388 1.2 -19.0°
Reaches altitude 10° 20:38:09 10° 265° (W) 1,520 -0.1 -19.2°
Enters shadow 20:41:27 62° 194° (SSW) 481 -3.6 -19.7°
